Location: Saratoga Springs
(43.0831°N, 73.7850°W)
Time: 11:31:36
(UTC-04:00)

Vanguard 1 Rocket - Pass Details

Date: 21 April 2024
Orbit: 651 x 4220 km, 34.3° (Epoch: 19 May)

Event Time Altitude Azimuth Distance (km) Brightness Sun altitude
Rises 20:39:29 0° 251° (WSW) 3,168 10.9 -9.9°
Reaches altitude 10° 20:41:35 10° 243° (WSW) 2,410 10.1 -10.3°
Maximum altitude 20:46:46 42° 173° (S) 1,523 8.3 -11.1°
Enters shadow 20:54:00 14° 110° (ESE) 3,534 9.8 -12.2°
